Overview Statistics Trail Chart Weather Telemetry Raw packets
 

This is the latest recevied weather packets stored in our database for station/object AG1T-20. If no packets are shown the sender has not sent any weather packets the latest 10 day(s).

<< 10 11 12 13 14 15 16 >>
Time Temp. Humidity Pressure Rain* Wind** Luminosity Snow
1788441604 7.78° C 79% 1033.5 hPa 0 mm - 32 W/m² -
1788441004 7.78° C 79% 1033.6 hPa 0 mm - 18 W/m² -
1788440404 7.78° C 78% 1033.2 hPa 0 mm - 11 W/m² -
1788439805 7.78° C 79% 1033.1 hPa 0 mm - 4 W/m² -
1788439204 7.78° C 79% 1033.4 hPa 0 mm - 0 W/m² -
1788438605 7.78° C 76% 1033.1 hPa 0 mm - 0 W/m² -
1788438005 7.78° C 75% 1033 hPa 0 mm - 0 W/m² -
1788437405 7.78° C 73% 1033 hPa 0 mm - 0 W/m² -
1788436807 8.33° C 73% 1032.4 hPa 0 mm - 0 W/m² -
1788436205 8.33° C 72% 1032.7 hPa 0 mm - 0 W/m² -
1788435605 8.33° C 72% 1032.3 hPa 0 mm - 0 W/m² -
1788435005 8.33° C 72% 1032.4 hPa 0 mm - 0 W/m² -
1788434405 8.89° C 71% 1032 hPa 0 mm - 0 W/m² -
1788433805 8.89° C 71% 1031.7 hPa 0 mm - 0 W/m² -
1788433205 8.89° C 70% 1031.6 hPa 0 mm - 0 W/m² -
1788432605 8.89° C 70% 1031.6 hPa 0 mm - 0 W/m² -
1788432004 8.89° C 69% 1031.4 hPa 0 mm - 0 W/m² -
1788431405 8.89° C 67% 1031.3 hPa 0 mm - 0 W/m² -
1788430805 9.44° C 68% 1031.1 hPa 0 mm - 0 W/m² -
1788430204 10° C 67% 1030.8 hPa 0 mm - 0 W/m² -
1788429605 10.56° C 64% 1030.4 hPa 0 mm - 0 W/m² -
1788429005 10.56° C 63% 1030.4 hPa 0 mm - 0 W/m² -
1788428404 10.56° C 60% 1030.4 hPa 0 mm - 0 W/m² -
1788427805 10.56° C 59% 1030.3 hPa 0 mm - 0 W/m² -
1788427204 11.11° C 55% 1029.6 hPa 0 mm - 0 W/m² -

* Rain latest hour (hover to see other rain measurements)
** Current wind speed in m/s (hover to see current wind gust speed)